DW5707 Weather Reports


time (UTC)temp
C
wind
direction
speed
KPH
gust
KPH
rain 1hr
cm
rain 24hr
cm
rain mn
cm
humidity
%
barometer
mb
20260504201919 22 345 4.8 16.1 0.00 0.00 0.00 47 1010.3
20260504201419 22 345 4.8 16.1 0.00 0.00 0.00 48 1010.3
20260504200917 22 243 6.4 19.3 0.00 0.00 0.00 47 1010.4
20260504200411 22 345 6.4 19.3 0.00 0.00 0.00 45 1010.4
20260504195905 22 345 4.8 12.9 0.00 0.00 0.00 46 1010.4
20260504195355 21 345 4.8 16.1 0.00 0.00 0.00 49 1010.6
20260504194849 21 183 8.0 20.9 0.00 0.00 0.00 46 1010.6
20260504194349 21 195 8.0 20.9 0.00 0.00 0.00 44 1010.7
20260504193847 21 279 6.4 16.1 0.00 0.00 0.00 46 1010.8
20260504193346 21 238 6.4 16.1 0.00 0.00 0.00 46 1010.8
20260504192844 21 190 6.4 16.1 0.00 0.00 0.00 45 1011.1
20260504192346 21 202 8.0 25.7 0.00 0.00 0.00 48 1011.2
20260504191846 21 163 8.0 25.7 0.00 0.00 0.00 46 1011.1
20260504191344 21 233 6.4 22.5 0.00 0.00 0.00 47 1011.3
20260504190347 21 327 6.4 16.1 0.00 0.00 0.00 47 1011.5
20260504185844 21 259 4.8 14.5 0.00 0.00 0.00 50 1011.5
20260504185347 21 333 4.8 16.1 0.00 0.00 0.00 48 1011.6
20260504184849 21 181 8.0 22.5 0.00 0.00 0.00 45 1011.7
20260504184347 21 175 8.0 22.5 0.00 0.00 0.00 47 1011.7
20260504183848 21 345 9.7 20.9 0.00 0.00 0.00 45 1011.8
20260504183340 21 345 8.0 20.9 0.00 0.00 0.00 46 1011.8
20260504181830 21 222 8.0 22.5 0.00 0.00 0.00 49 1012.0
20260504181331 21 131 9.7 22.5 0.00 0.00 0.00 51 1012.0
20260504180831 21 262 8.0 19.3 0.00 0.00 0.00 47 1012.0
20260504180333 21 345 8.0 19.3 0.00 0.00 0.00 44 1012.0
20260504175839 20 345 8.0 30.6 0.00 0.00 0.00 46 1012.2
20260504175338 21 188 8.0 30.6 0.00 0.00 0.00 46 1012.0
20260504174836 20 345 6.4 22.5 0.00 0.00 0.00 46 1012.0
20260504174338 21 114 6.4 22.5 0.00 0.00 0.00 46 1012.2
20260504173330 21 258 6.4 17.7 0.00 0.00 0.00 45 1012.4
20260504172331 20 181 6.4 16.1 0.00 0.00 0.00 45 1012.4
20260504171329 20 230 6.4 16.1 0.00 0.00 0.00 50 1012.7
20260504170830 20 345 8.0 22.5 0.00 0.00 0.00 49 1012.7
20260504160321 19 301 4.8 17.7 0.00 0.00 0.00 47 1013.5
20260504150819 18 158 4.8 14.5 0.00 0.00 0.00 47 1014.0
20260504150319 18 96 4.8 12.9 0.00 0.00 0.00 49 1014.0
20260504141314 16 262 4.8 14.5 0.00 0.00 0.00 55 1014.4
20260504140813 16 215 4.8 14.5 0.00 0.00 0.00 52 1014.3
20260504140314 16 203 4.8 14.5 0.00 0.00 0.00 53 1014.3
20260504130812 12 345 4.8 14.5 0.00 0.00 0.00 65 1014.6
20260504120314 8 133 3.2 6.4 0.00 0.00 0.00 72 1014.9
20260504100505 7 106 0.0 3.2 0.00 0.00 0.00 66 1015.0
20260504081928 7 252 1.6 9.7 0.00 0.00 0.00 61 1015.3
20260504081428 7 269 3.2 9.7 0.00 0.00 0.00 62 1015.2
20260504080927 7 246 3.2 9.7 0.00 0.00 0.00 62 1015.3
20260504080423 7 264 3.2 11.3 0.00 0.00 0.00 63 1015.2
20260504050410 7 292 0.0 0.0 0.00 0.00 0.00 63 1015.5
20260504045911 7 293 0.0 0.0 0.00 0.00 0.00 62 1015.6
20260504045407 7 293 0.0 0.0 0.00 0.00 0.00 62 1015.6
20260504044907 7 287 0.0 0.0 0.00 0.00 0.00 62 1015.6
20260504044408 7 290 0.0 1.6 0.00 0.00 0.00 62 1015.6
20260504043901 7 290 0.0 3.2 0.00 0.00 0.00 61 1015.5
20260504043357 7 290 0.0 3.2 0.00 0.00 0.00 61 1015.5
20260504042849 7 289 0.0 1.6 0.00 0.00 0.00 61 1015.5
20260504041844 8 289 0.0 3.2 0.00 0.00 0.00 60 1015.5
20260504041343 8 289 0.0 3.2 0.00 0.00 0.00 60 1015.6
20260504040841 8 290 0.0 3.2 0.00 0.00 0.00 60 1015.5
20260504040343 8 232 0.0 0.0 0.00 0.00 0.00 61 1015.4
20260504035838 8 232 0.0 0.0 0.00 0.00 0.00 61 1015.3
20260504035340 8 233 0.0 0.0 0.00 0.00 0.00 60 1015.3
20260504034840 8 233 0.0 0.0 0.00 0.00 0.00 60 1015.2
20260504034340 8 233 0.0 0.0 0.00 0.00 0.00 60 1015.2
20260504033839 8 233 0.0 0.0 0.00 0.00 0.00 60 1015.2
20260504033339 8 231 0.0 0.0 0.00 0.00 0.00 60 1015.2
20260504032840 8 231 0.0 0.0 0.00 0.00 0.00 61 1015.1
20260504032341 8 231 0.0 0.0 0.00 0.00 0.00 60 1015.2
20260504031840 8 231 0.0 0.0 0.00 0.00 0.00 60 1015.1
20260504031341 8 231 0.0 0.0 0.00 0.00 0.00 60 1015.1
20260504030844 8 231 0.0 0.0 0.00 0.00 0.00 60 1015.1
20260504030344 8 231 0.0 0.0 0.00 0.00 0.00 61 1015.0
20260504025844 8 231 0.0 0.0 0.00 0.00 0.00 61 1015.1
20260504025344 8 231 0.0 0.0 0.00 0.00 0.00 60 1015.1
20260504024842 8 231 0.0 0.0 0.00 0.00 0.00 60 1015.1
20260504023345 7 298 0.0 0.0 0.00 0.00 0.00 62 1015.0
20260504022843 7 298 0.0 0.0 0.00 0.00 0.00 61 1014.9
20260504022342 7 298 0.0 0.0 0.00 0.00 0.00 64 1014.9
20260504020342 8 298 0.0 0.0 0.00 0.00 0.00 60 1015.0
20260504015840 8 298 0.0 0.0 0.00 0.00 0.00 60 1015.0
20260504014839 8 298 0.0 0.0 0.00 0.00 0.00 61 1014.9
20260504014339 8 298 0.0 0.0 0.00 0.00 0.00 61 1014.9
20260504013840 8 298 0.0 0.0 0.00 0.00 0.00 60 1014.9
20260504013338 8 298 0.0 0.0 0.00 0.00 0.00 61 1014.9
20260504012832 8 298 0.0 0.0 0.00 0.00 0.00 62 1014.8
20260504012331 8 298 0.0 0.0 0.00 0.00 0.00 61 1014.7
20260504011829 8 298 0.0 0.0 0.00 0.00 0.00 63 1014.7
20260504011329 8 298 0.0 0.0 0.00 0.00 0.00 62 1014.6
20260504010827 8 298 0.0 0.0 0.00 0.00 0.00 59 1014.5
20260504005825 8 298 0.0 0.0 0.00 0.00 0.00 59 1014.6
20260504005323 9 298 0.0 0.0 0.00 0.00 0.00 62 1014.5
20260504004822 10 298 0.0 0.0 0.00 0.00 0.00 62 1014.5
20260504004322 10 298 0.0 0.0 0.00 0.00 0.00 56 1014.5
20260504003819 10 298 0.0 0.0 0.00 0.00 0.00 56 1014.4
20260504003319 10 284 0.0 0.0 0.00 0.00 0.00 54 1014.4
20260504002820 10 292 0.0 0.0 0.00 0.00 0.00 53 1014.3
20260504002318 11 294 0.0 0.0 0.00 0.00 0.00 51 1014.3
20260504001315 11 295 0.0 0.0 0.00 0.00 0.00 50 1014.2
20260504000817 11 296 0.0 1.6 0.00 0.00 0.00 50 1014.2
20260504000310 11 296 0.0 4.8 0.00 0.00 0.00 49 1014.2
20260503235811 11 296 1.6 4.8 0.00 0.00 0.00 50 1014.1
20260503235311 12 274 1.6 4.8 0.00 0.00 0.00 50 1014.1
20260503234812 12 334 3.2 8.0 0.00 0.00 0.00 50 1014.1
20260503234310 12 335 4.8 8.0 0.00 0.00 0.00 49 1013.9
20260503233806 12 21 3.2 6.4 0.00 0.00 0.00 49 1013.8
20260503233306 12 345 3.2 6.4 0.00 0.00 0.00 48 1013.8
20260503232804 12 345 4.8 12.9 0.00 0.00 0.00 48 1013.7
20260503232305 13 335 6.4 12.9 0.00 0.00 0.00 48 1013.7
20260503231801 13 329 4.8 9.7 0.00 0.00 0.00 47 1013.7
20260503231301 13 294 4.8 12.9 0.00 0.00 0.00 45 1013.7
20260503230800 13 283 4.8 12.9 0.00 0.00 0.00 45 1013.7
20260503230301 13 302 8.0 16.1 0.00 0.00 0.00 48 1013.7
20260503225802 13 306 9.7 16.1 0.00 0.00 0.00 47 1013.7
20260503224752 13 6 9.7 19.3 0.00 0.00 0.00 47 1013.8
20260503224249 13 336 9.7 19.3 0.00 0.00 0.00 47 1013.9
20260503223749 13 317 6.4 14.5 0.00 0.00 0.00 48 1013.8
20260503223249 13 287 6.4 14.5 0.00 0.00 0.00 45 1013.8
20260503222749 13 340 6.4 14.5 0.00 0.00 0.00 46 1013.7
20260503222251 13 296 4.8 14.5 0.00 0.00 0.00 44 1013.7
20260503221749 13 345 6.4 16.1 0.00 0.00 0.00 46 1013.7
20260503221246 13 259 11.3 22.5 0.00 0.00 0.00 44 1013.7
20260503220748 13 345 11.3 22.5 0.00 0.00 0.00 47 1013.7
20260503215745 13 340 14.5 22.5 0.00 0.00 0.00 45 1013.8
20260503215244 14 340 9.7 19.3 0.00 0.00 0.00 46 1013.8
20260503214749 14 340 9.7 17.7 0.00 0.00 0.00 45 1013.8
20260503214246 14 340 11.3 25.7 0.00 0.00 0.00 44 1013.7
20260503213743 14 340 11.3 25.7 0.00 0.00 0.00 43 1013.7
20260503213243 14 303 11.3 24.1 0.00 0.00 0.00 44 1013.6
20260503212745 14 340 11.3 24.1 0.00 0.00 0.00 43 1013.7
20260503212242 15 323 9.7 19.3 0.00 0.00 0.00 40 1013.7
20260503211739 15 2 8.0 19.3 0.00 0.00 0.00 45 1013.6
20260503211238 15 314 8.0 17.7 0.00 0.00 0.00 44 1013.7
20260503210737 15 287 11.3 25.7 0.00 0.00 0.00 42 1013.7
20260503205738 15 336 12.9 24.1 0.00 0.00 0.00 44 1013.7
20260503205237 15 345 9.7 19.3 0.00 0.00 0.00 43 1013.6
20260503204738 15 336 14.5 29.0 0.00 0.00 0.00 43 1013.6
20260503204238 14 336 17.7 29.0 0.00 0.00 0.00 42 1013.7
20260503203736 14 345 12.9 27.4 0.00 0.00 0.00 43 1013.6
20260503203236 14 345 9.7 16.1 0.00 0.00 0.00 41 1013.6
20260503202736 14 345 11.3 27.4 0.00 0.00 0.00 40 1013.7
20260503202237 15 308 17.7 32.2 0.00 0.00 0.00 45 1013.7